Other Public Products
Issued by NWS Grand Forks, ND

Home | Current Version | Previous Version | Graphics & Text | Print | Product List | Glossary On
Versions: 1 2 3 4 5 6 7 8 9 10 11 12 13 14 15 16 17 18 19 20 21 22 23 24 25 26 27 28 29 30 31 32 33 34 35 36 37 38 39 40 41 42 43 44 45 46 47 48 49 50
000
FPUS83 KFGF 301831
OPUFGF
PRAIRIE TO PINES WEATHER ROUNDUP
NATIONAL WEATHER SERVICE EASTERN NORTH DAKOTA/GRAND FORKS ND
100 PM CDT SUN AUG 30 2015

 **SATELLITE DATA USED TO AUGMENT SKY COVER AT AUTOMATED STATIONS**
 *****  WEATHER ACROSS EASTERN NORTH DAKOTA  *****

CITY           SKY/WX    TMP DP  RH WIND       PRES   REMARKS
GRAND FORKS    PTSUNNY   80  66  62 S16       29.73F
6HR MIN TEMP:  65; 6HR MAX TEMP:  81;

GRAND FORKS AF MOSUNNY   81  68  64 SE14      29.73F
GRAND CITY NWS   N/A     79 N/A N/A S10         N/A
BUXTON         NOT AVBL
DEVILS LAKE    MOSUNNY   84  64  51 SE15      29.68F
6HR MIN TEMP:  66; 6HR MAX TEMP:  82;

FARGO          SUNNY     82  65  56 S16       29.79F
6HR MIN TEMP:  65; 6HR MAX TEMP:  82;

WAHPETON ARPT  PTCLDY    81  63  54 S15       29.82F
$$

 *****  WEATHER ACROSS CENTRAL AND WESTERN NORTH DAKOTA  *****

CITY           SKY/WX    TMP DP  RH WIND       PRES   REMARKS
JAMESTOWN      SUNNY     82  66  58 S15G22    29.74F
6HR MIN TEMP:  64; 6HR MAX TEMP:  82;

BISMARCK       CLOUDY    86  59  39 S13       29.70S
6HR MIN TEMP:  62; 6HR MAX TEMP:  87;

MINOT          PTSUNNY   89  56  32 S13       29.62F
6HR MIN TEMP:  65; 6HR MAX TEMP:  89;

MINOT AFB      PTSUNNY   92  57  30 S14       29.60F HX  90
6HR MIN TEMP:  60; 6HR MAX TEMP:  92;

GARRISON         N/A     87  58  37 S14       29.66F
6HR MIN TEMP:  62; 6HR MAX TEMP:  87;

WILLISTON      CLOUDY    84  52  33 N15       29.63S HAZE
6HR MIN TEMP:  60; 6HR MAX TEMP:  88;

DICKINSON      NOT AVBL
HETTINGER      PTSUNNY   93  45  19 SW10      29.73F
6HR MIN TEMP:  60; 6HR MAX TEMP:  93;

$$

 *****  OTHER OBSERVATIONS NORTHEAST NORTH DAKOTA  *****

CITY           SKY/WX    TMP DP  RH WIND       PRES   REMARKS
WALHALLA       FAIR      81  75  83 MISG      29.68F
LANGDON        FAIR      91  63  38 S17G23    29.70F HX  92
CAVALIER       FAIR      79  68  69 SE12      29.69F
GRAFTON        FAIR      81  70  69 S17       29.72F
CANDO          FAIR      86  64  48 S16       29.68F
FORT TOTTEN      N/A     85  65  51 S12       29.95S
ROLLA            N/A     90  57  33 S12G20    29.68F
RUGBY          FAIR      91  59  33 S15G22    29.64F HX  90
 ***** THE ABOVE OBSERVATIONS ARE NON NWS ARE NOT QUALITY
        CONTROLLED AND MAY MIS-REPORT RAIN FOR SNOW...
$$

 *****  OTHER OBSERVATIONS SOUTHEAST NORTH DAKOTA *****

CITY           SKY/WX    TMP DP  RH WIND       PRES   REMARKS
COOPERSTOWN    NOT AVBL
VALLEY CITY    FAIR      82  68  61 S15       29.77F
OAKES            N/A     81  75  83 S17       29.79F
GWINNER        FAIR      82  66  57 S15       29.80F
SHEYENNE NWR     N/A     83  70  63 S8        29.95S
BUFFALO        NOT AVBL
WYNDMERE         N/A     82  68  61 S12         N/A
 ***** THE ABOVE OBSERVATIONS ARE NON NWS ARE NOT QUALITY
       CONTROLLED AND MAY MIS-REPORT RAIN FOR SNOW...
$$

  *****  WEATHER ACROSS NORTHERN MINNESOTA  *****

CITY           SKY/WX    TMP DP  RH WIND       PRES   REMARKS
FLAG ISLAND    MOSUNNY   72  64  78 S9        29.78F
WARROAD        MOSUNNY   81  72  74 SE7       29.78F
ROSEAU         MOSUNNY   82  72  69 S9        29.76F
HALLOCK        MOSUNNY   82  70  65 S17       29.71F
THF RVR FALLS  MOSUNNY  N/A N/A N/A S14       29.77F
HALSTAD        NOT AVBL
FOSSTON        MOSUNNY   82  63  51 S14       29.82F
BAUDETTE       MOSUNNY   79  68  69 S9        29.80F
6HR MIN TEMP:  64; 6HR MAX TEMP:  79;

WASKISH        MOSUNNY   79  68  69 S5        29.83F
CROOKSTON      MOSUNNY   81  66  61 S18       29.77F
$$
  *****  WEATHER ACROSS CENTRAL AND WEST MINNESOTA  *****

CITY           SKY/WX    TMP DP  RH WIND       PRES   REMARKS
BEMIDJI        MOSUNNY   79  67  65 S12       29.85F
PARK RAPIDS    SUNNY     79  65  62 S13       29.87F
6HR MIN TEMP:  63; 6HR MAX TEMP:  79;

WADENA         SUNNY     77  64  65 S10       29.88F
DETROIT LAKES  SUNNY     79  64  61 S12       29.86F
MOORHEAD       SUNNY     81  66  61 S15       29.80F
FERGUS FALLS   SUNNY     79  66  65 SE14      29.84F
ELBOW LAKE     FAIR      76  67  73 S15       29.86F
6HR MIN TEMP:  60; 6HR MAX TEMP:  75;

MORRIS MN      SUNNY     79  66  65 S14G20    29.87F
STAPLES        SUNNY     77  64  65 S12       29.89F
WHEATON        SUNNY     77  66  69 S15       29.85F
$$
  *****  WEATHER ELSEWHERE ACROSS MINNESOTA  *****

CITY           SKY/WX    TMP DP  RH WIND       PRES   REMARKS
DULUTH         SUNNY     76  64  66 SW13      29.92F
6HR MIN TEMP:  63; 6HR MAX TEMP:  77;

INTRNTL FALLS  PTSUNNY   76  68  76 VRB5      29.84F
6HR MIN TEMP:  63; 6HR MAX TEMP:  76;

ELY            MOSUNNY   77  64  65 SW7       29.89S
CLOQUET        SUNNY     75  63  64 S12       29.92F
BRAINERD       SUNNY     73  63  70 S12       29.92F
6HR MIN TEMP:  61; 6HR MAX TEMP:  73;

HIBBING        SUNNY     78  65  63 MISG      29.89F
6HR MIN TEMP:  61; 6HR MAX TEMP:  78;

ALEXANDRIA     SUNNY     76  65  68 S10       29.92F
6HR MIN TEMP:  62; 6HR MAX TEMP:  77;

SAINT CLOUD    SUNNY     73  63  70 S12       29.94F
6HR MIN TEMP:  59; 6HR MAX TEMP:  74;

MINNEAPOLIS    MOSUNNY   74  63  68 S12       29.98F
6HR MIN TEMP:  62; 6HR MAX TEMP:  75;

$$

  *****  WEATHER ACROSS SOUTH DAKOTA  *****

CITY           SKY/WX    TMP DP  RH WIND       PRES   REMARKS
SIOUX FALLS    MOSUNNY   72  64  76 S13       29.97F
6HR MIN TEMP:  62; 6HR MAX TEMP:  72;

BROOKINGS      SUNNY     75  64  69 S12       29.95F
WATERTOWN      MOSUNNY   78  66  66 S12       29.89F
6HR MIN TEMP:  61; 6HR MAX TEMP:  78;

HURON          SUNNY     79  66  64 S12G22    29.86F
6HR MIN TEMP:  63; 6HR MAX TEMP:  79;

SISSETON         N/A     86  65  49 S9        29.82F
ABERDEEN       SUNNY     80  67  64 S15       29.81F
6HR MIN TEMP:  64; 6HR MAX TEMP:  80;

MITCHELL       SUNNY     80  67  64 S14G22    29.89F
PIERRE         SUNNY     95  52  23 S20G28    29.75F HX  92
6HR MIN TEMP:  66; 6HR MAX TEMP:  96;

MOBRIDGE       MOSUNNY   85  60  42 SE14      29.72F
RAPID CITY     MOSUNNY   89  57  33 S10       29.81F
6HR MIN TEMP:  60; 6HR MAX TEMP:  90;

$$

  *****  SOME WEATHER IN NEARBY STATES *****

CITY           SKY/WX    TMP DP  RH WIND       PRES   REMARKS
GLASGOW MT     RAIN      63  55  75 NW13      29.82F
6HR MIN TEMP:  63; 6HR MAX TEMP:  77; 6HR PCP:  0.01;

GREAT FALLS MT CLOUDY    77  46  33 SW18G28   29.82F HAZE
6HR MIN TEMP:  57; 6HR MAX TEMP:  75; 6HR PCP: TRACE;

CHEYENNE WY    MOSUNNY   89  33  13 NW13G23   30.12F
6HR MIN TEMP:  59; 6HR MAX TEMP:  89;

SCOTTSBLUFF NE SUNNY     85  53  33 E9        29.96F
6HR MIN TEMP:  57; 6HR MAX TEMP:  85;

OMAHA NE       CLOUDY    70  64  81 S13       30.06F
6HR MIN TEMP:  63; 6HR MAX TEMP:  71;

DES MOINES IA  CLOUDY    74  66  76 S6        30.07F
6HR MIN TEMP:  61; 6HR MAX TEMP:  74; 6HR PCP: TRACE;

DAVENPORT IA   CLOUDY    76  64  66 CALM      30.08F
6HR MIN TEMP:  61; 6HR MAX TEMP:  76;

CHICAGO IL     CLOUDY    70  63  78 CALM      30.07F
6HR MIN TEMP:  65; 6HR MAX TEMP:  71;

EAU CLAIRE WI  MOSUNNY   74  63  68 S12       30.02F
6HR MIN TEMP:  56; 6HR MAX TEMP:  74;

LA CROSSE WI   CLOUDY    72  63  73 S8        30.05F
6HR MIN TEMP:  59; 6HR MAX TEMP:  72;

$$

  *****  SOME NATIONAL WEATHER *****

CITY           SKY/WX    TMP DP  RH WIND       PRES   REMARKS
LA GUARDIA NY  PTSUNNY   90  62  39 VRB7      30.05F HX  90
6HR MIN TEMP:  74; 6HR MAX TEMP:  90;



USA.gov is the U.S. government's official web portal to all federal, state and local government web resources and services.